Location: Bas-Clignon
(44.2000°N, 6.6333°E)
Time: 01:53:28
(UTC+00:00)

Cosmos 1655 Rocket - Pass Details

Date: 03 February 2023
Orbit: 970 x 1006 km, 83.0° (Epoch: 27 March)

Event Time Altitude Azimuth Distance (km) Brightness Sun altitude
Rises 17:26:11 0° 350° (N) 3,696 7.0 -7.7°
Reaches altitude 10° 17:28:43 10° 350° (N) 2,739 6.3 -8.1°
Maximum altitude 17:34:58 79° 265° (W) 997 4.2 -9.2°
Drops below altitude 10° 17:41:10 10° 180° (S) 2,706 6.5 -10.3°
Sets 17:43:39 0° 179° (S) 3,648 7.2 -10.7°
